Simultaneous Nadir Overpasses (SNOs) Predictions

Prediction of SNOs between METOP-C and LANDSAT-8 Satellite Orbit:

Table of predicted SNOs for the next 14.0 days since TLE Epoch: 1/15/2022
Index Date (METOP-C) Time (METOP-C) Lat,Lon (METOP-C) SZA (METOP-C ) Date (LANDSAT-8) Time (LANDSAT-8) Lat,Lon (LANDSAT-8) SZA (LANDSAT-8 ) Distance(km) Time Diff (sec)
1 01/15/2022 22:15:07 81.09,-114.52 103.74 01/15/2022 22:15:26 81.09,-114.54 103.75 0.25 19
2 01/15/2022 23:05:46 -81.11, 53.32 76.21 01/15/2022 23:04:52 -81.11, 53.38 76.22 1.07 54
3 01/18/2022 17:49:29 81.10, -47.82 103.20 01/18/2022 17:49:40 81.10, -47.96 103.19 2.29 11
4 01/18/2022 18:40:08 -81.12, 120.09 76.74 01/18/2022 18:39:06 -81.12, 119.98 76.78 1.89 62
5 01/21/2022 13:23:52 81.08, 18.09 102.52 01/21/2022 13:23:54 81.08, 18.19 102.53 1.73 2
6 01/21/2022 14:14:30 -81.12,-173.54 77.37 01/21/2022 14:13:19 -81.13,-173.49 77.39 1.17 71
7 01/24/2022 08:07:35 -81.07, -83.21 78.19 01/24/2022 08:08:42 -81.08, -83.05 78.14 3.00 67
8 01/24/2022 08:58:13 81.11, 85.10 101.92 01/24/2022 08:58:07 81.11, 84.99 101.91 1.79 6
9 01/27/2022 03:41:57 -81.08, -16.53 78.87 01/27/2022 03:42:56 -81.08, -16.66 78.87 2.13 59



Historial Predications of SNOs between METOP-C and LANDSAT-8
